Miscellaneous Local Product
Issued by NWS North Platte, NE

Home | Current Version | Previous Version | Text Only | Print | Product List | Glossary On
Versions: 1 2 3 4 5 6 7 8 9 10 11 12 13 14 15 16 17 18 19 20 21 22 23 24 25 26 27 28 29 30 31 32 33 34 35 36 37 38 39 40 41 42 43 44 45 46 47 48 49 50
000
AXUS43 KLBF 311710
MISLBF


WESTERN AND NORTH CENTRAL NEBRASKA HOURLY WEATHER ROUNDUP
NATIONAL WEATHER SERVICE NORTH PLATTE NE
1200 PM CDT SUN AUG 31 2014

***STATIONS NOT REPORTING VARIABLES SUCH AS SKY/WEATHER OR
PRESSURE ARE PROVIDED BY THE NEBRASKA DEPARTMENT OF
ROADS...RAWS...AND APRS NETWORKS...AND ARE NOT UNDER
NATIONAL WEATHER SERVICE QUALITY CONTROL***

...OBSERVATIONS IN AND NEAR THE EASTERN PANHANDLE OF NEBRASKA...

CITY           SKY/WX    TMP DP  RH WIND       PRES   REMARKS
PINE RIDGE     CLOUDY    62  58  86 CALM      29.81F
CHADRON        CLOUDY    67  56  67 S7        29.78F
ALLIANCE       CLOUDY    61  57  87 W5        29.85S
SIDNEY         LGT RAIN  62  55  77 W9        29.94R
WHITECLAY        N/A     63  57  82 E7          N/A
RUSHVILLE        N/A     61  58  91 S14         N/A
GORDON           N/A     61  61  99 S12         N/A
CRESCENT LAKE    N/A     61  56  84 NW8G21      N/A
LISCO            N/A     64  58  82 W5          N/A
BIG SPRINGS      N/A     65  57  76 N6          N/A
$$

...OBSERVATIONS IN NORTH CENTRAL NEBRASKA...

CITY           SKY/WX    TMP DP  RH WIND       PRES   REMARKS
VALENTINE      LGT RAIN  64  58  80 W8        29.85R
THEDFORD       CLOUDY    71  57  61 NW16G24   29.89R
AINSWORTH      CLOUDY    70  57  63 NW9       29.83R
O`NEILL        SUNNY     78  63  59 N8        29.76S
ORD            SUNNY     81  65  58 W10       29.75S
BROKEN BOW     PTSUNNY   79  63  57 W9        29.77F
SPRINGVIEW       N/A     72  59  63 W6          N/A
ROSE             N/A     81  61  50 E8          N/A
NEWPORT          N/A     76  58  53 S5          N/A
COMSTOCK         N/A     86  66  51 W10         N/A
CHAMBERS         N/A     83  62  49 CALM        N/A
EWING            N/A     79  67  67 CALM        N/A
$$

...OBSERVATIONS IN SOUTHWEST NEBRASKA AND FAR NORTHEAST COLORADO...

CITY           SKY/WX    TMP DP  RH WIND       PRES   REMARKS
WRAY             N/A     71  54  53 N17G28    29.87R
HOLYOKE        FAIR      72  54  53 NW15G25   29.88S
IMPERIAL       PTSUNNY   73  55  53 N18       29.83F
OGALLALA       CLOUDY    67  55  64 N15G25    29.82F
NORTH PLATTE   LGT RAIN  71  60  68 NW18G24   29.85R
MCCOOK         PTSUNNY   80  60  50 NW13      29.80F
LEXINGTON      CLOUDY    78  64  61 W9        29.80R
PAXTON           N/A     67  59  74 NW7         N/A
SUTHERLAND       N/A     71  59  65 N8          N/A
BRADY            N/A     70  61  72 CALM        N/A
GOTHENBURG       N/A     76  58  53 W5          N/A
CALLAWAY         N/A     73  65  76 W8          N/A
$$

...SOME WEATHER OBSERVATIONS FROM AROUND THE REGION...

CITY           SKY/WX    TMP DP  RH WIND       PRES   REMARKS
DENVER         PTSUNNY   68  51  54 NE6       29.99S
LARAMIE        RAIN      50  46  86 NW16G26   30.07R FOG
CHEYENNE       CLOUDY    60  47  61 W10       29.99R
SCOTTSBLUFF    CLOUDY    64  58  80 SW5       29.87F
RAPID CITY     CLOUDY    65  54  67 SE7       29.80F
PIERRE         LGT RAIN  66  61  84 SW12      29.74R
WINNER         PTSUNNY   71  57  61 W13       29.80R
SIOUX FALLS    PTSUNNY   77  66  68 VRB7      29.71S
OMAHA          CLOUDY    78  66  66 S14       29.80R
GRAND ISLAND   SUNNY     86  64  47 S18G24    29.74S
KANSAS CITY    PTSUNNY   86  72  62 S14       29.88F HX  92
WICHITA        MOSUNNY   89  69  51 S20G28    29.85F HX  93
HAYS           MOSUNNY   91  59  33 SW25G38   29.73F HX  90
LIBERAL        SUNNY     91  59  33 S23G31    29.83F HX  90
GOODLAND       PTSUNNY   79  61  53 N23G30    29.84R
$$



USA.gov is the U.S. government's official web portal to all federal, state and local government web resources and services.